Вернуться в каталог

FENGYUN 1C DEB

LostSSO
NORAD 30955·DEBRIS·🇨🇳 China

Запущен May 10, 1999 с Taiyuan Satellite Launch Center

Loading…

Ближайшие Пролёты (ближайшие 24 часа)

TLE

УстаревшееSource: Space-Track

Эпоха: Sep 12, 2022, 10:26 UTC

1 30955U 99025BAV 22255.43495679  .00002745  00000-0  14499-2 0  9997
2 30955  98.6925 124.6845 0049640 274.7218  84.8287 14.14006339796221

Отслеживайте FENGYUN 1C DEB в реальном времени с AllMySat

Download on the App Store